Location: Unspecified
(36.5600°N, 136.6600°E)
Time: 04:35:55
(UTC+09:00)

BlueWalker 3 - Pass Details

Date: 21 June 2024
Orbit: 480 x 491 km, 53.2° (Epoch: 24 July)

Event Time Altitude Azimuth Distance (km) Brightness Sun altitude
Rises 21:39:18 0° 283° (WNW) 2,537 6.2 -22.0°
Reaches altitude 10° 21:42:53 10° 318° (NW) 1,657 5.7 -22.4°
Maximum altitude 21:44:07 11° 338° (NNW) 1,577 5.5 -22.5°
Drops below altitude 10° 21:45:22 10° 357° (N) 1,657 5.4 -22.6°
Sets 21:48:57 0° 33° (NNE) 2,538 5.8 -23.0°
